contact:dominique.lefevre@mio.osupytheas.fr, maurice.libes@osupytheas.fr, didier.mallarino@osupytheas.fr
Project:EMSO http://www.emso-fr.org/EMSO-France
Depth: 2436.0 m
Title:EMSO Ligure Ouest : Data MII capteur AQUADOPP
Date,Latitude,Longitude,X_East,Y_North,Z_Up,Amplitude_X,Amplitude_Y,Amplitude_Z,Batterie,SoundSpeed,Heading,Pitch,Roll,Pressure,TIS,Speed,Direction
, degrees North, degrees East, m.s-1, m.s-1,m.s-1, 1, 1, 1, Volt, m.s-1, degree, degree, degree, dbar, degree_C, m.s-1, degree
2022-01-06T00:04:03,42.805,6.029,-0.026,-0.023,-0.039,103.0,102.0,101.0,13.4,1505.2,328.8,-0.7,1.8,2470.51,13.28,0.034,228.5
2022-01-06T00:07:03,42.805,6.029,-0.032,0.01,-0.017,102.0,103.0,100.0,13.4,1505.2,327.1,-0.8,1.9,2470.492,13.28,0.033,287.4
2022-01-06T00:10:03,42.805,6.029,-0.027,-0.008,0.001,103.0,102.0,101.0,13.4,1505.2,327.5,-0.8,1.8,2470.49,13.28,0.028,253.5
2022-01-06T00:13:03,42.805,6.029,-0.019,-0.003,-0.004,103.0,102.0,101.0,13.3,1505.2,329.8,-0.8,1.8,2470.473,13.28,0.019,261.0
2022-01-06T00:16:03,42.805,6.029,-0.032,-0.009,-0.008,103.0,103.0,102.0,13.4,1505.2,327.1,-0.7,1.8,2470.51,13.29,0.033,254.3
2022-01-06T00:19:03,42.805,6.029,-0.047,-0.023,-0.036,103.0,102.0,102.0,13.4,1505.2,326.0,-0.8,1.8,2470.483,13.29,0.052,243.9
2022-01-06T00:22:03,42.805,6.029,-0.031,0.0,-0.012,105.0,104.0,101.0,13.4,1505.2,326.3,-0.7,1.8,2470.463,13.29,0.03,270.0
2022-01-06T00:25:03,42.805,6.029,-0.036,-0.018,-0.038,103.0,105.0,102.0,13.4,1505.2,330.9,-0.8,1.8,2470.466,13.29,0.04,243.4
2022-01-06T00:28:03,42.805,6.029,-0.038,-0.004,-0.031,103.0,103.0,101.0,13.4,1505.2,325.5,-0.7,1.8,2470.474,13.29,0.038,264.0
2022-01-06T00:31:03,42.805,6.029,-0.033,-0.013,-0.003,104.0,103.0,102.0,13.4,1505.2,329.0,-0.8,1.8,2470.452,13.29,0.035,248.5
2022-01-06T00:34:03,42.805,6.029,-0.011,0.003,0.003,105.0,103.0,101.0,13.3,1505.2,324.4,-0.7,1.8,2470.476,13.29,0.011,285.3
2022-01-06T00:37:03,42.805,6.029,-0.009,-0.017,-0.013,104.0,101.0,101.0,13.4,1505.2,328.2,-0.7,1.9,2470.401,13.29,0.019,207.9
2022-01-06T00:40:03,42.805,6.029,-0.031,-0.001,-0.015,105.0,102.0,101.0,13.4,1505.2,330.8,-0.7,1.8,2470.442,13.29,0.031,268.2
2022-01-06T00:43:03,42.805,6.029,-0.021,0.003,-0.036,103.0,102.0,103.0,13.3,1505.2,324.7,-0.8,1.8,2470.444,13.29,0.021,278.1
2022-01-06T00:46:03,42.805,6.029,-0.035,-0.012,-0.046,104.0,103.0,101.0,13.4,1505.2,329.2,-0.8,1.8,2470.441,13.29,0.037,251.1
2022-01-06T00:49:03,42.805,6.029,-0.013,-0.002,-0.022,105.0,103.0,100.0,13.4,1505.2,326.7,-0.8,1.8,2470.433,13.29,0.013,261.3
2022-01-06T00:52:03,42.805,6.029,-0.028,-0.001,-0.016,102.0,104.0,102.0,13.3,1505.2,326.1,-0.8,1.8,2470.456,13.29,0.028,268.0
2022-01-06T00:55:03,42.805,6.029,-0.015,0.002,0.009,102.0,103.0,102.0,13.4,1505.2,326.7,-0.8,1.8,2470.413,13.29,0.015,277.6
2022-01-06T00:58:03,42.805,6.029,-0.012,-0.005,-0.012,104.0,103.0,102.0,13.4,1505.2,329.0,-0.7,1.8,2470.395,13.29,0.013,247.4
2022-01-06T01:04:03,42.805,6.029,-0.008,-0.01,-0.008,105.0,105.0,103.0,13.4,1505.2,330.5,-0.8,1.8,2470.38,13.28,0.012,218.7
2022-01-06T01:07:03,42.805,6.029,-0.027,0.008,0.004,103.0,106.0,101.0,13.4,1505.2,324.0,-0.7,1.8,2470.391,13.28,0.028,286.5
2022-01-06T01:10:03,42.805,6.029,-0.027,-0.012,-0.003,102.0,105.0,101.0,13.4,1505.2,327.0,-0.7,1.8,2470.407,13.28,0.029,246.0
2022-01-06T01:13:03,42.805,6.029,-0.004,-0.02,-0.023,103.0,103.0,102.0,13.3,1505.2,327.8,-0.7,1.8,2470.33,13.29,0.02,191.3
2022-01-06T01:16:03,42.805,6.029,-0.032,0.0,-0.017,104.0,103.0,102.0,13.4,1505.2,331.4,-0.8,1.8,2470.372,13.29,0.032,270.0
2022-01-06T01:19:03,42.805,6.029,-0.016,-0.004,-0.019,103.0,102.0,101.0,13.4,1505.2,328.1,-0.8,1.8,2470.418,13.29,0.016,256.0
2022-01-06T01:22:03,42.805,6.029,-0.014,-0.033,-0.046,104.0,103.0,101.0,13.3,1505.2,329.1,-0.8,1.8,2470.385,13.29,0.035,203.0
2022-01-06T01:25:03,42.805,6.029,0.0,-0.022,-0.024,103.0,104.0,100.0,13.4,1505.2,328.2,-0.8,1.8,2470.402,13.29,0.022,180.0
2022-01-06T01:28:03,42.805,6.029,-0.024,-0.022,-0.032,104.0,104.0,100.0,13.4,1505.2,327.7,-0.8,1.8,2470.412,13.29,0.032,227.5
2022-01-06T01:31:03,42.805,6.029,-0.025,-0.018,0.019,103.0,103.0,101.0,13.4,1505.2,328.2,-0.7,1.8,2470.37,13.29,0.03,234.2
2022-01-06T01:34:03,42.805,6.029,-0.019,-0.016,-0.026,103.0,102.0,102.0,13.3,1505.2,329.5,-0.8,1.8,2470.354,13.29,0.024,229.9
2022-01-06T01:37:03,42.805,6.029,-0.032,-0.004,-0.029,104.0,103.0,101.0,13.4,1505.2,325.2,-0.7,1.8,2470.39,13.29,0.032,262.9
2022-01-06T01:40:03,42.805,6.029,-0.005,-0.006,-0.017,104.0,104.0,101.0,13.4,1505.2,331.0,-0.7,1.8,2470.391,13.29,0.007,219.8
2022-01-06T01:43:03,42.805,6.029,-0.026,-0.003,-0.02,103.0,104.0,101.0,13.4,1505.2,330.9,-0.8,1.8,2470.448,13.29,0.026,263.4
2022-01-06T01:46:03,42.805,6.029,-0.019,0.006,-0.03,104.0,102.0,102.0,13.4,1505.2,330.3,-0.8,1.8,2470.335,13.29,0.019,287.5
2022-01-06T01:49:03,42.805,6.029,-0.028,-0.013,-0.005,104.0,103.0,101.0,13.3,1505.2,326.3,-0.8,1.8,2470.369,13.29,0.03,245.1
2022-01-06T01:52:03,42.805,6.029,-0.008,-0.004,-0.029,103.0,103.0,101.0,13.3,1505.2,329.5,-0.7,1.8,2470.305,13.29,0.008,243.4
2022-01-06T01:55:03,42.805,6.029,-0.034,-0.025,-0.028,103.0,103.0,101.0,13.4,1505.2,324.8,-0.8,1.8,2470.324,13.29,0.042,233.7
2022-01-06T01:58:03,42.805,6.029,-0.021,-0.014,-0.033,102.0,102.0,101.0,13.4,1505.2,329.4,-0.8,1.8,2470.317,13.29,0.025,236.3
2022-01-06T02:04:03,42.805,6.029,-0.024,-0.022,-0.016,103.0,103.0,101.0,13.4,1505.2,325.7,-0.7,1.8,2470.335,13.28,0.032,227.5
2022-01-06T02:07:03,42.805,6.029,-0.012,-0.002,-0.018,103.0,102.0,101.0,13.4,1505.2,325.0,-0.8,1.8,2470.31,13.28,0.012,260.5
2022-01-06T02:10:03,42.805,6.029,-0.014,-0.011,-0.005,104.0,103.0,101.0,13.4,1505.2,324.2,-0.8,1.8,2470.287,13.28,0.017,231.8
2022-01-06T02:13:03,42.805,6.029,-0.023,0.001,-0.037,103.0,103.0,102.0,13.3,1505.2,329.3,-0.8,1.8,2470.34,13.28,0.023,272.5
2022-01-06T02:16:03,42.805,6.029,-0.014,0.0,-0.039,104.0,104.0,102.0,13.4,1505.2,326.2,-0.8,1.8,2470.334,13.28,0.014,270.0
2022-01-06T02:19:03,42.805,6.029,-0.008,-0.03,-0.01,103.0,103.0,102.0,13.3,1505.2,329.4,-0.7,1.8,2470.315,13.29,0.031,194.9
2022-01-06T02:22:03,42.805,6.029,-0.017,-0.02,0.011,102.0,103.0,102.0,13.4,1505.2,331.1,-0.8,1.8,2470.316,13.29,0.026,220.4
2022-01-06T02:25:03,42.805,6.029,-0.032,-0.031,-0.03,103.0,104.0,102.0,13.4,1505.2,329.1,-0.8,1.8,2470.327,13.29,0.044,225.9
2022-01-06T02:28:03,42.805,6.029,-0.015,-0.013,-0.017,103.0,102.0,101.0,13.3,1505.2,329.1,-0.7,1.8,2470.376,13.29,0.019,229.1
2022-01-06T02:31:03,42.805,6.029,-0.026,-0.025,-0.017,103.0,103.0,101.0,13.4,1505.2,329.8,-0.7,1.8,2470.464,13.29,0.036,226.1
2022-01-06T02:34:03,42.805,6.029,-0.014,-0.023,-0.01,101.0,104.0,102.0,13.4,1505.2,325.9,-0.8,1.8,2470.439,13.29,0.026,211.3
2022-01-06T02:37:03,42.805,6.029,-0.019,-0.009,-0.031,103.0,104.0,100.0,13.4,1505.2,326.9,-0.7,1.8,2470.518,13.29,0.021,244.7
2022-01-06T02:40:03,42.805,6.029,-0.036,0.001,-0.032,103.0,102.0,103.0,13.4,1505.2,328.6,-0.7,1.8,2470.559,13.29,0.036,271.6
2022-01-06T02:43:03,42.805,6.029,-0.006,-0.011,-0.022,104.0,103.0,101.0,13.4,1505.2,326.9,-0.8,1.8,2470.547,13.29,0.012,208.6
2022-01-06T02:46:03,42.805,6.029,-0.022,-0.002,-0.006,103.0,102.0,102.0,13.4,1505.2,331.3,-0.7,1.8,2470.668,13.29,0.022,264.8
2022-01-06T02:49:03,42.805,6.029,-0.005,-0.01,-0.007,103.0,102.0,101.0,13.4,1505.2,325.2,-0.7,1.8,2471.004,13.29,0.011,206.6
2022-01-06T02:52:03,42.805,6.029,-0.02,-0.029,-0.038,104.0,102.0,101.0,13.4,1505.2,329.9,-0.8,1.8,2471.088,13.29,0.035,214.6
2022-01-06T02:55:03,42.805,6.029,-0.026,0.011,0.009,103.0,103.0,102.0,13.3,1505.2,326.5,-0.7,1.8,2471.157,13.29,0.028,292.9
2022-01-06T02:58:03,42.805,6.029,0.012,-0.014,0.0,104.0,103.0,101.0,13.4,1505.2,329.2,-0.8,1.8,2471.27,13.29,0.018,139.4
2022-01-06T03:04:03,42.805,6.029,-0.03,-0.021,-0.025,104.0,101.0,101.0,13.4,1505.2,329.1,-0.7,1.8,2470.998,13.28,0.036,235.0
2022-01-06T03:07:03,42.805,6.029,0.003,-0.006,-0.026,103.0,104.0,101.0,13.4,1505.2,325.2,-0.7,1.8,2471.072,13.28,0.006,153.4
2022-01-06T03:10:03,42.805,6.029,-0.005,-0.02,-0.041,103.0,103.0,101.0,13.4,1505.2,330.0,-0.7,1.8,2471.478,13.28,0.02,194.0
2022-01-06T03:13:03,42.805,6.029,-0.045,-0.023,-0.053,103.0,103.0,102.0,13.4,1505.2,326.3,-0.7,1.8,2471.701,13.28,0.05,242.9
2022-01-06T03:16:03,42.805,6.029,-0.02,-0.007,-0.039,105.0,101.0,102.0,13.3,1505.2,326.4,-0.8,1.8,2471.543,13.28,0.021,250.7
2022-01-06T03:19:03,42.805,6.029,0.002,-0.013,0.012,103.0,103.0,101.0,13.4,1505.2,330.0,-0.8,1.8,2471.716,13.29,0.013,171.3
2022-01-06T03:22:03,42.805,6.029,-0.024,-0.007,-0.048,103.0,102.0,101.0,13.3,1505.2,330.1,-0.8,1.8,2471.941,13.29,0.025,253.7
2022-01-06T03:25:03,42.805,6.029,-0.01,-0.018,-0.032,103.0,104.0,101.0,13.4,1505.2,329.9,-0.7,1.8,2472.151,13.29,0.02,209.1
2022-01-06T03:28:03,42.805,6.029,-0.023,-0.017,-0.012,102.0,103.0,102.0,13.4,1505.2,329.1,-0.8,1.8,2472.292,13.29,0.028,233.5
2022-01-06T03:31:03,42.805,6.029,-0.02,-0.012,-0.001,104.0,102.0,102.0,13.4,1505.2,331.0,-0.7,1.8,2472.507,13.29,0.023,239.0
2022-01-06T03:34:03,42.805,6.029,-0.017,-0.007,-0.02,103.0,104.0,101.0,13.4,1505.2,329.6,-0.7,1.8,2472.534,13.29,0.018,247.6
2022-01-06T03:37:03,42.805,6.029,-0.009,-0.003,-0.041,103.0,104.0,101.0,13.4,1505.2,326.7,-0.8,1.8,2472.618,13.29,0.009,251.6
2022-01-06T03:40:03,42.805,6.029,-0.018,-0.009,-0.039,104.0,105.0,101.0,13.3,1505.2,324.7,-0.8,1.8,2472.733,13.29,0.02,243.4
2022-01-06T03:43:03,42.805,6.029,-0.017,0.009,-0.053,104.0,102.0,101.0,13.4,1505.2,327.5,-0.8,1.8,2472.799,13.29,0.019,297.9
2022-01-06T03:46:03,42.805,6.029,0.005,-0.008,-0.032,103.0,102.0,101.0,13.4,1505.2,324.7,-0.7,1.8,2472.794,13.29,0.009,148.0
2022-01-06T03:49:03,42.805,6.029,-0.019,-0.034,-0.043,104.0,102.0,100.0,13.3,1505.2,331.8,-0.7,1.8,2472.788,13.29,0.038,209.2
2022-01-06T03:52:03,42.805,6.029,-0.031,0.0,-0.014,102.0,104.0,100.0,13.3,1505.2,329.5,-0.7,1.8,2472.607,13.29,0.03,270.0
2022-01-06T03:55:03,42.805,6.029,0.002,-0.027,-0.031,104.0,103.0,101.0,13.4,1505.2,331.5,-0.7,1.8,2472.435,13.29,0.027,175.8
2022-01-06T03:58:03,42.805,6.029,-0.007,-0.02,-0.015,104.0,104.0,100.0,13.4,1505.2,330.1,-0.7,1.8,2472.326,13.29,0.021,199.3
2022-01-06T04:04:03,42.805,6.029,-0.002,-0.024,-0.022,104.0,103.0,102.0,13.3,1505.2,326.0,-0.8,1.8,2471.814,13.28,0.024,184.8
2022-01-06T04:07:03,42.805,6.029,-0.01,-0.013,-0.055,104.0,103.0,102.0,13.3,1505.2,326.3,-0.8,1.8,2471.828,13.28,0.016,217.6
2022-01-06T04:10:03,42.805,6.029,0.0,-0.016,-0.043,103.0,103.0,101.0,13.3,1505.2,326.3,-0.7,1.8,2471.804,13.29,0.016,180.0
2022-01-06T04:13:03,42.805,6.029,-0.037,-0.009,-0.028,103.0,103.0,101.0,13.4,1505.2,328.3,-0.8,1.8,2471.869,13.29,0.038,256.3
2022-01-06T04:16:03,42.805,6.029,-0.026,-0.012,-0.019,104.0,103.0,102.0,13.4,1505.2,329.9,-0.8,1.8,2472.126,13.29,0.028,245.2
2022-01-06T04:19:03,42.805,6.029,-0.014,-0.027,-0.032,104.0,103.0,101.0,13.3,1505.2,328.9,-0.8,1.8,2472.295,13.29,0.03,207.4
2022-01-06T04:22:03,42.805,6.029,-0.028,-0.012,-0.026,102.0,103.0,101.0,13.3,1505.2,329.5,-0.8,1.9,2472.383,13.29,0.03,246.8
2022-01-06T04:25:03,42.805,6.029,-0.026,-0.015,-0.032,104.0,102.0,101.0,13.3,1505.2,326.6,-0.7,1.8,2472.203,13.29,0.03,240.0
2022-01-06T04:28:03,42.805,6.029,-0.023,-0.01,-0.036,104.0,103.0,101.0,13.3,1505.2,331.1,-0.8,1.8,2472.571,13.29,0.025,246.5
2022-01-06T04:31:03,42.805,6.029,-0.029,-0.026,-0.026,104.0,104.0,102.0,13.4,1505.2,326.8,-0.7,1.8,2472.743,13.29,0.038,228.1
2022-01-06T04:34:03,42.805,6.029,-0.014,-0.033,-0.018,103.0,103.0,102.0,13.4,1505.2,327.8,-0.8,1.8,2473.003,13.29,0.035,203.0
2022-01-06T04:37:03,42.805,6.029,-0.028,-0.032,-0.031,105.0,102.0,101.0,13.4,1505.2,330.3,-0.8,1.8,2473.016,13.29,0.042,221.2
2022-01-06T04:40:03,42.805,6.029,-0.021,-0.03,-0.041,104.0,103.0,101.0,13.3,1505.2,326.1,-0.8,1.8,2473.083,13.29,0.036,215.0
2022-01-06T04:43:03,42.805,6.029,-0.022,-0.014,-0.035,103.0,103.0,101.0,13.4,1505.2,324.4,-0.8,1.8,2473.211,13.29,0.026,237.5
2022-01-06T04:46:03,42.805,6.029,-0.02,-0.029,-0.006,103.0,102.0,101.0,13.4,1505.2,326.0,-0.8,1.8,2473.274,13.29,0.035,214.6
2022-01-06T04:49:03,42.805,6.029,-0.046,-0.016,-0.013,102.0,103.0,103.0,13.3,1505.2,331.9,-0.8,1.8,2473.113,13.29,0.048,250.8
2022-01-06T04:52:03,42.805,6.029,-0.013,-0.052,-0.03,104.0,103.0,102.0,13.4,1505.2,326.4,-0.8,1.8,2472.522,13.29,0.053,194.0
2022-01-06T04:55:03,42.805,6.029,-0.043,0.0,-0.018,104.0,103.0,102.0,13.3,1505.2,326.9,-0.7,1.8,2471.972,13.29,0.043,270.0
2022-01-06T04:58:03,42.805,6.029,-0.04,-0.022,-0.038,103.0,103.0,101.0,13.4,1505.2,331.0,-0.7,1.8,2472.184,13.29,0.045,241.2
2022-01-06T05:04:03,42.805,6.029,-0.014,-0.014,-0.021,102.0,102.0,101.0,13.4,1505.2,330.0,-0.8,1.8,2471.964,13.28,0.019,225.0
2022-01-06T05:07:03,42.805,6.029,-0.026,-0.025,-0.045,103.0,101.0,102.0,13.4,1505.2,324.7,-0.7,1.8,2471.866,13.28,0.036,226.1
2022-01-06T05:10:03,42.805,6.029,-0.023,-0.024,-0.031,102.0,102.0,101.0,13.3,1505.2,330.4,-0.8,1.8,2471.832,13.28,0.033,223.8
2022-01-06T05:13:03,42.805,6.029,-0.014,-0.018,0.016,103.0,101.0,101.0,13.4,1505.2,328.7,-0.8,1.8,2471.896,13.28,0.022,217.9
2022-01-06T05:16:03,42.805,6.029,-0.02,-0.03,-0.043,103.0,103.0,101.0,13.4,1505.2,328.2,-0.7,1.8,2472.052,13.28,0.036,213.7
2022-01-06T05:19:03,42.805,6.029,-0.019,-0.037,-0.038,102.0,102.0,102.0,13.4,1505.2,331.8,-0.8,1.8,2471.928,13.28,0.041,207.2
2022-01-06T05:22:03,42.805,6.029,-0.006,-0.028,-0.034,102.0,102.0,100.0,13.4,1505.2,327.4,-0.8,1.8,2471.986,13.28,0.028,192.1
2022-01-06T05:25:03,42.805,6.029,-0.024,-0.033,-0.047,103.0,102.0,100.0,13.3,1505.2,331.0,-0.8,1.8,2471.805,13.28,0.04,216.0
2022-01-06T05:28:03,42.805,6.029,-0.02,-0.025,-0.033,102.0,102.0,101.0,13.4,1505.2,325.4,-0.8,1.8,2471.993,13.28,0.032,218.7
2022-01-06T05:31:03,42.805,6.029,0.0,-0.033,-0.024,100.0,104.0,101.0,13.3,1505.2,331.2,-0.7,1.8,2472.095,13.28,0.033,180.0
2022-01-06T05:34:03,42.805,6.029,-0.022,-0.009,0.017,103.0,102.0,101.0,13.4,1505.2,331.0,-0.7,1.8,2472.239,13.28,0.023,247.8
2022-01-06T05:37:03,42.805,6.029,-0.023,-0.039,-0.034,101.0,102.0,101.0,13.4,1505.2,327.6,-0.7,1.8,2472.323,13.28,0.045,210.5
2022-01-06T05:40:03,42.805,6.029,-0.041,-0.022,-0.015,102.0,102.0,101.0,13.4,1505.2,328.3,-0.7,1.8,2472.418,13.28,0.046,241.8
2022-01-06T05:43:03,42.805,6.029,-0.034,0.0,-0.03,102.0,102.0,101.0,13.4,1505.2,327.3,-0.8,1.8,2472.386,13.28,0.034,270.0
2022-01-06T05:46:03,42.805,6.029,-0.031,-0.008,-0.008,103.0,103.0,100.0,13.3,1505.2,327.5,-0.7,1.8,2472.55,13.28,0.032,255.5
2022-01-06T05:49:03,42.805,6.029,-0.012,-0.027,-0.036,102.0,102.0,100.0,13.3,1505.2,326.2,-0.7,1.8,2472.741,13.28,0.029,204.0
2022-01-06T05:52:03,42.805,6.029,-0.039,-0.018,-0.029,103.0,102.0,101.0,13.4,1505.2,325.9,-0.7,1.8,2472.714,13.28,0.042,245.2
2022-01-06T05:55:03,42.805,6.029,-0.022,-0.027,-0.01,102.0,103.0,101.0,13.4,1505.2,325.7,-0.8,1.8,2472.782,13.28,0.034,219.2
2022-01-06T05:58:03,42.805,6.029,-0.018,-0.02,0.008,102.0,102.0,101.0,13.4,1505.2,326.6,-0.7,1.9,2472.78,13.28,0.026,222.0
2022-01-06T06:04:03,42.805,6.029,-0.026,-0.032,-0.059,102.0,101.0,101.0,13.4,1505.2,327.7,-0.8,1.8,2472.219,13.28,0.041,219.1
2022-01-06T06:07:03,42.805,6.029,-0.002,-0.028,-0.032,102.0,102.0,101.0,13.4,1505.2,325.4,-0.8,1.8,2472.343,13.28,0.028,184.1
2022-01-06T06:10:03,42.805,6.029,-0.017,0.008,-0.033,102.0,102.0,101.0,13.4,1505.2,328.6,-0.7,1.9,2472.207,13.28,0.018,295.2
2022-01-06T06:13:03,42.805,6.029,-0.022,-0.025,-0.021,102.0,101.0,102.0,13.4,1505.2,326.6,-0.7,1.8,2471.968,13.28,0.033,221.3
2022-01-06T06:16:03,42.805,6.029,-0.019,-0.008,0.0,103.0,102.0,101.0,13.4,1505.2,324.8,-0.8,1.8,2472.154,13.28,0.02,247.2
2022-01-06T06:19:03,42.805,6.029,-0.029,-0.026,-0.03,103.0,102.0,100.0,13.4,1505.2,329.5,-0.7,1.8,2472.024,13.28,0.038,228.1
2022-01-06T06:22:03,42.805,6.029,-0.028,-0.024,-0.021,103.0,103.0,101.0,13.4,1505.2,327.3,-0.7,1.8,2472.181,13.28,0.036,229.4
2022-01-06T06:25:03,42.805,6.029,-0.023,-0.008,0.0,102.0,102.0,101.0,13.3,1505.2,331.1,-0.8,1.8,2472.277,13.28,0.024,250.8
2022-01-06T06:28:03,42.805,6.029,0.0,-0.042,-0.022,103.0,104.0,100.0,13.3,1505.2,329.2,-0.7,1.8,2472.53,13.29,0.042,180.0
2022-01-06T06:31:03,42.805,6.029,-0.034,-0.015,-0.046,102.0,103.0,101.0,13.4,1505.2,326.9,-0.7,1.8,2472.581,13.28,0.037,246.2
2022-01-06T06:34:03,42.805,6.029,-0.029,-0.028,-0.009,102.0,102.0,100.0,13.4,1505.2,326.6,-0.8,1.8,2472.517,13.29,0.04,226.0
2022-01-06T06:37:03,42.805,6.029,-0.036,-0.028,-0.036,102.0,102.0,102.0,13.4,1505.2,331.8,-0.8,1.8,2472.406,13.29,0.045,232.1
2022-01-06T06:40:03,42.805,6.029,0.005,-0.028,-0.003,102.0,104.0,100.0,13.4,1505.2,326.7,-0.8,1.8,2472.421,13.29,0.028,169.9
2022-01-06T06:43:03,42.805,6.029,-0.044,-0.028,-0.056,102.0,102.0,100.0,13.4,1505.2,332.2,-0.7,1.8,2472.481,13.29,0.052,237.5
2022-01-06T06:46:03,42.805,6.029,-0.014,-0.031,-0.035,102.0,102.0,101.0,13.4,1505.2,329.8,-0.8,1.8,2472.249,13.29,0.034,204.3
2022-01-06T06:49:03,42.805,6.029,-0.012,-0.002,0.0,101.0,102.0,102.0,13.4,1505.2,327.4,-0.7,1.8,2472.301,13.29,0.012,260.5
2022-01-06T06:52:03,42.805,6.029,-0.035,-0.024,0.004,103.0,103.0,101.0,13.3,1505.2,325.9,-0.7,1.8,2472.411,13.29,0.042,235.6
2022-01-06T06:55:03,42.805,6.029,-0.013,-0.03,-0.022,103.0,103.0,101.0,13.3,1505.2,327.5,-0.8,1.8,2472.424,13.29,0.032,203.4
2022-01-06T06:58:03,42.805,6.029,-0.015,-0.025,-0.058,104.0,102.0,102.0,13.4,1505.2,331.1,-0.8,1.8,2472.624,13.29,0.029,211.0
2022-01-06T07:04:03,42.805,6.029,-0.024,-0.024,-0.018,102.0,103.0,102.0,13.3,1505.2,328.0,-0.8,1.8,2472.406,13.28,0.033,225.0
2022-01-06T07:07:03,42.805,6.029,-0.021,-0.009,0.007,103.0,102.0,101.0,13.3,1505.2,324.0,-0.8,1.8,2472.418,13.28,0.022,246.8
2022-01-06T07:10:03,42.805,6.029,-0.023,-0.011,-0.018,103.0,104.0,102.0,13.4,1505.2,325.7,-0.8,1.9,2472.847,13.28,0.025,244.4
2022-01-06T07:13:03,42.805,6.029,-0.031,-0.019,-0.024,104.0,102.0,101.0,13.4,1505.2,325.0,-0.7,1.8,2472.91,13.28,0.036,238.5
2022-01-06T07:16:03,42.805,6.029,-0.026,-0.017,-0.003,103.0,103.0,101.0,13.4,1505.2,328.3,-0.8,1.8,2472.798,13.28,0.031,236.8
2022-01-06T07:19:03,42.805,6.029,-0.009,-0.03,-0.011,103.0,103.0,101.0,13.4,1505.2,326.7,-0.8,1.9,2472.764,13.28,0.031,196.7
2022-01-06T07:22:03,42.805,6.029,-0.017,-0.017,-0.003,103.0,104.0,102.0,13.4,1505.2,325.1,-0.7,1.9,2473.09,13.28,0.024,225.0
2022-01-06T07:25:03,42.805,6.029,-0.03,-0.026,-0.011,104.0,102.0,100.0,13.4,1505.2,329.8,-0.8,1.8,2473.166,13.28,0.039,229.1
2022-01-06T07:28:03,42.805,6.029,-0.021,-0.037,-0.028,103.0,103.0,101.0,13.3,1505.2,326.2,-0.7,1.8,2473.235,13.28,0.042,209.6
2022-01-06T07:31:03,42.805,6.029,-0.032,-0.02,-0.006,104.0,103.0,101.0,13.3,1505.2,325.8,-0.8,1.8,2473.289,13.28,0.037,238.0
2022-01-06T07:34:03,42.805,6.029,-0.022,-0.026,-0.024,104.0,102.0,102.0,13.4,1505.2,327.0,-0.8,1.8,2473.282,13.28,0.034,220.2
2022-01-06T07:37:03,42.805,6.029,-0.021,-0.023,-0.004,103.0,103.0,101.0,13.4,1505.2,324.7,-0.8,1.8,2472.668,13.28,0.031,222.4
2022-01-06T07:40:03,42.805,6.029,-0.039,-0.004,-0.022,103.0,103.0,101.0,13.3,1505.2,328.1,-0.7,1.8,2471.86,13.28,0.039,264.1
2022-01-06T07:43:03,42.805,6.029,-0.039,-0.015,-0.02,103.0,104.0,101.0,13.3,1505.2,329.3,-0.8,1.8,2471.373,13.28,0.041,249.0
2022-01-06T07:46:03,42.805,6.029,-0.036,-0.02,-0.029,102.0,104.0,102.0,13.4,1505.2,328.6,-0.7,1.8,2471.07,13.28,0.041,240.9
2022-01-06T07:49:03,42.805,6.029,-0.043,-0.017,-0.018,103.0,104.0,102.0,13.4,1505.2,324.2,-0.8,1.8,2470.679,13.28,0.046,248.4
2022-01-06T07:52:03,42.805,6.029,-0.027,-0.017,-0.012,103.0,104.0,101.0,13.4,1505.2,325.0,-0.7,1.8,2471.037,13.28,0.031,237.8
2022-01-06T07:55:03,42.805,6.029,-0.044,-0.026,0.0,104.0,103.0,101.0,13.4,1505.2,327.3,-0.7,1.8,2472.101,13.28,0.051,239.4
2022-01-06T07:58:03,42.805,6.029,-0.02,-0.019,-0.028,104.0,102.0,101.0,13.3,1505.2,327.1,-0.8,1.8,2472.766,13.28,0.027,226.5
2022-01-06T08:04:03,42.805,6.029,-0.031,-0.018,-0.019,103.0,101.0,102.0,13.4,1505.2,327.8,-0.8,1.8,2473.326,13.28,0.035,239.9
2022-01-06T08:07:03,42.805,6.029,-0.026,-0.021,-0.028,103.0,102.0,102.0,13.4,1505.2,328.3,-0.8,1.8,2473.481,13.28,0.033,231.1
2022-01-06T08:10:03,42.805,6.029,-0.039,-0.007,-0.017,104.0,102.0,101.0,13.3,1505.2,327.3,-0.7,1.8,2473.644,13.28,0.039,259.8
2022-01-06T08:13:03,42.805,6.029,-0.029,-0.024,-0.025,103.0,102.0,101.0,13.4,1505.2,326.7,-0.8,1.8,2473.878,13.28,0.037,230.4
2022-01-06T08:16:03,42.805,6.029,-0.027,-0.013,0.015,103.0,103.0,101.0,13.4,1505.2,326.1,-0.7,1.9,2473.922,13.28,0.029,244.3
2022-01-06T08:19:03,42.805,6.029,-0.029,-0.032,-0.018,104.0,100.0,101.0,13.4,1505.2,324.2,-0.7,1.8,2473.944,13.28,0.043,222.2
2022-01-06T08:22:03,42.805,6.029,-0.009,-0.026,-0.042,102.0,102.0,101.0,13.4,1505.2,324.0,-0.8,1.8,2473.931,13.28,0.027,199.1
2022-01-06T08:25:03,42.805,6.029,-0.022,-0.016,-0.006,103.0,102.0,101.0,13.4,1505.2,328.2,-0.7,1.8,2473.955,13.28,0.027,234.0
2022-01-06T08:28:03,42.805,6.029,-0.018,-0.007,-0.019,103.0,102.0,100.0,13.4,1505.2,327.1,-0.7,1.8,2473.861,13.28,0.019,248.8
2022-01-06T08:31:03,42.805,6.029,-0.018,-0.002,-0.018,102.0,102.0,101.0,13.4,1505.2,327.8,-0.7,1.8,2473.881,13.28,0.018,263.7
2022-01-06T08:34:03,42.805,6.029,-0.022,-0.026,-0.006,103.0,102.0,101.0,13.4,1505.2,326.1,-0.8,1.8,2473.93,13.28,0.034,220.2
2022-01-06T08:37:03,42.805,6.029,-0.02,-0.033,0.0,104.0,102.0,101.0,13.4,1505.2,329.1,-0.7,1.8,2473.911,13.28,0.038,211.2
2022-01-06T08:40:03,42.805,6.029,-0.047,-0.011,-0.017,102.0,102.0,100.0,13.3,1505.2,331.0,-0.7,1.9,2473.871,13.28,0.048,256.8
2022-01-06T08:43:03,42.805,6.029,-0.034,-0.013,-0.045,102.0,101.0,101.0,13.4,1505.2,327.3,-0.8,1.8,2473.932,13.28,0.036,249.1
2022-01-06T08:46:03,42.805,6.029,-0.028,-0.026,-0.027,101.0,101.0,102.0,13.4,1505.2,329.1,-0.7,1.8,2473.958,13.28,0.038,227.1
2022-01-06T08:49:03,42.805,6.029,-0.043,-0.004,0.0,103.0,102.0,101.0,13.3,1505.2,331.5,-0.7,1.8,2474.036,13.28,0.043,264.7
2022-01-06T08:52:03,42.805,6.029,-0.025,0.007,0.017,104.0,102.0,101.0,13.4,1505.2,329.0,-0.7,1.8,2474.065,13.28,0.025,285.6
2022-01-06T08:55:03,42.805,6.029,-0.029,-0.038,-0.037,103.0,102.0,101.0,13.4,1505.2,325.3,-0.8,1.9,2474.123,13.28,0.047,217.3
2022-01-06T08:58:03,42.805,6.029,-0.039,0.001,0.001,102.0,101.0,101.0,13.4,1505.2,323.9,-0.8,1.8,2474.042,13.28,0.039,271.5
2022-01-06T09:04:03,42.805,6.029,-0.028,-0.004,-0.028,102.0,102.0,101.0,13.4,1505.2,327.5,-0.7,1.8,2473.777,13.28,0.028,261.9
2022-01-06T09:07:03,42.805,6.029,-0.032,0.002,-0.038,103.0,102.0,101.0,13.4,1505.2,329.5,-0.8,1.8,2473.811,13.28,0.032,273.6
2022-01-06T09:10:03,42.805,6.029,-0.046,0.004,-0.013,102.0,101.0,101.0,13.3,1505.2,324.7,-0.8,1.8,2473.838,13.28,0.046,275.0
2022-01-06T09:13:03,42.805,6.029,-0.015,-0.007,-0.018,103.0,102.0,101.0,13.3,1505.2,325.2,-0.7,1.8,2473.814,13.28,0.016,245.0
2022-01-06T09:16:03,42.805,6.029,-0.024,-0.005,-0.002,103.0,101.0,101.0,13.3,1505.2,324.4,-0.7,1.8,2473.749,13.28,0.024,258.2
2022-01-06T09:19:03,42.805,6.029,-0.053,0.001,-0.017,102.0,102.0,101.0,13.4,1505.2,328.7,-0.8,1.8,2473.68,13.28,0.053,271.1
2022-01-06T09:22:03,42.805,6.029,-0.038,-0.022,-0.027,103.0,102.0,102.0,13.3,1505.2,325.0,-0.8,1.8,2473.741,13.28,0.043,239.9
2022-01-06T09:25:03,42.805,6.029,-0.031,-0.015,-0.029,103.0,102.0,101.0,13.4,1505.2,328.0,-0.8,1.8,2473.844,13.28,0.034,244.2
2022-01-06T09:28:03,42.805,6.029,-0.023,0.007,-0.006,102.0,102.0,101.0,13.4,1505.2,331.1,-0.7,1.8,2473.922,13.28,0.024,286.9
2022-01-06T09:31:03,42.805,6.029,-0.019,-0.01,-0.024,104.0,101.0,101.0,13.4,1505.2,329.6,-0.8,1.8,2473.829,13.28,0.021,242.2
2022-01-06T09:34:03,42.805,6.029,-0.033,-0.014,-0.003,101.0,103.0,101.0,13.3,1505.2,324.5,-0.8,1.8,2473.798,13.28,0.035,247.0
2022-01-06T09:37:03,42.805,6.029,-0.026,-0.011,-0.036,103.0,102.0,101.0,13.4,1505.2,326.6,-0.7,1.8,2473.718,13.28,0.028,247.1
2022-01-06T09:40:03,42.805,6.029,-0.051,-0.024,-0.035,102.0,101.0,101.0,13.4,1505.2,326.4,-0.8,1.8,2473.64,13.28,0.056,244.8
2022-01-06T09:43:03,42.805,6.029,-0.009,-0.03,-0.036,102.0,103.0,101.0,13.3,1505.2,327.9,-0.7,1.8,2473.615,13.28,0.031,196.7
2022-01-06T09:46:03,42.805,6.029,-0.021,-0.008,-0.007,102.0,102.0,101.0,13.4,1505.2,328.7,-0.7,1.8,2473.527,13.28,0.022,249.1
2022-01-06T09:49:03,42.805,6.029,-0.024,0.003,-0.01,102.0,102.0,101.0,13.4,1505.2,327.6,-0.8,1.8,2473.465,13.28,0.024,277.1